"Pseudo-MPEC" for P22n0fQ

Created 2026 May 8 1:35:07 UT using Find_Orb

Click here for an explanation of pseudo-MPECs

 
 Astrometry: 
     P22n0fQ*0C2026 05 07.36774815 07 16.525+09 17 11.84   ~57B5 21.95wXNEOCPF52
     P22n0fQ 0C2026 05 07.37985015 07 15.757+09 17 23.70   ~57B5 21.37wXNEOCPF52
     P22n0fQ 0C2026 05 07.40411115 07 14.190+09 17 46.65   ~57B5 22.02wXNEOCPF52

Station data:
(F52) Pan-STARRS 2, Haleakala  (N20.707382 W156.255910)  US/Hawaii.
   Observers J. Herman, T. Lowe, P. Minguez, A. Schultz, I. Smith. Measurers
   K. Chambers, T. de Boer, J. Fairlamb, H. Gao, M. Huber, C.-C. Lin, E.
   Magnier, Y. Ramanjooloo, R. Wainscoat, R. Weryk. 1.8-m Ritchey-Chrétien +
   CCD.

Orbital elements:  P22n0fQ
   Perihelion 2025 Dec 14.701040 +/- 259 TT = 16:49:29.8 (JD 2461024.201040)
Epoch 2026 May  7.0 TT = JDT 2461167.5   Earth MOID: 0.4509   Ju: 0.9749
M   9.046283525 +/- 58              Ma: 0.0286                   AutoNEOCP
n   0.063128744 +/- 0.13            Peri.  293.931189 +/- 80
a   6.246709055 +/- 8.59            Node   202.819318 +/- 42
e   0.80828891 +/- 0.271            Incl.   35.457641 +/- 29
P  15.61266                H 18.73  G  0.15   U 11.4  SR
q 1.197563389 +/- 0.866    Q 11.29585472 +/- 32.4         (J2000 ecliptic)
From 3 observations 2026 May 7 (52.4 min); mean residual 0".10
Residuals in arcseconds: 
260507 F52  .05-  .11-    260507 F52  .08+  .17+    260507 F52  .03-  .06-    

Ephemerides (geocentric):
Date (UTC) HH   RA             Dec           delta  r     elong  mag " sig PA
---- --------  ------------   ------------  ------ ------ -----  --- --------
2026 05 08 02  15 06 32.447   +09 28 26.84  1.2626 2.2121 153.5 21.7  283  90
2026 05 08 03  15 06 29.906   +09 29 05.47  1.2631 2.2125 153.5 21.7  302  90
2026 05 08 04  15 06 27.366   +09 29 44.04  1.2636 2.2129 153.5 21.7  322  90
2026 05 08 05  15 06 24.828   +09 30 22.55  1.2640 2.2133 153.4 21.7  342  90
2026 05 08 06  15 06 22.291   +09 31 01.00  1.2645 2.2136 153.4 21.7  362  90
2026 05 08 07  15 06 19.756   +09 31 39.38  1.2650 2.2140 153.4 21.7  383  90
2026 05 08 08  15 06 17.222   +09 32 17.69  1.2655 2.2144 153.4 21.7  403  90
2026 05 08 09  15 06 14.690   +09 32 55.95  1.2660 2.2148 153.4 21.7  424  89
2026 05 08 10  15 06 12.160   +09 33 34.14  1.2664 2.2152 153.4 21.7  445  89
2026 05 08 11  15 06 09.631   +09 34 12.27  1.2669 2.2156 153.3 21.7  467  89
2026 05 08 12  15 06 07.104   +09 34 50.33  1.2674 2.2160 153.3 21.7  488  89
2026 05 08 13  15 06 04.578   +09 35 28.33  1.2679 2.2164 153.3 21.7  510  89
2026 05 08 14  15 06 02.054   +09 36 06.27  1.2684 2.2168 153.3 21.7  532  90
2026 05 08 15  15 05 59.532   +09 36 44.15  1.2688 2.2172 153.3 21.7  554  90
2026 05 08 16  15 05 57.011   +09 37 21.96  1.2693 2.2176 153.2 21.7  577  90
2026 05 08 17  15 05 54.492   +09 37 59.71  1.2698 2.2180 153.2 21.7  600  90
2026 05 08 18  15 05 51.975   +09 38 37.40  1.2703 2.2184 153.2 21.7  623  90
2026 05 08 19  15 05 49.459   +09 39 15.02  1.2708 2.2188 153.2 21.7  646  90
2026 05 08 20  15 05 46.945   +09 39 52.58  1.2713 2.2192 153.2 21.7  670  90
2026 05 08 21  15 05 44.432   +09 40 30.08  1.2717 2.2196 153.1 21.7  694  90
2026 05 08 22  15 05 41.921   +09 41 07.51  1.2722 2.2199 153.1 21.7  719  90
2026 05 08 23  15 05 39.412   +09 41 44.88  1.2727 2.2203 153.1 21.7  743  90
2026 05 09 00  15 05 36.904   +09 42 22.19  1.2732 2.2207 153.1 21.7  769  90
2026 05 09 01  15 05 34.399   +09 42 59.44  1.2737 2.2211 153.1 21.7  794  90
2026 05 09 02  15 05 31.894   +09 43 36.62  1.2742 2.2215 153.0 21.7  820  90
2026 05 09 03  15 05 29.392   +09 44 13.74  1.2747 2.2219 153.0 21.7  846  90
2026 05 09 04  15 05 26.891   +09 44 50.80  1.2751 2.2223 153.0 21.7  873  90
2026 05 09 05  15 05 24.392   +09 45 27.79  1.2756 2.2227 153.0 21.7  900  90
2026 05 09 06  15 05 21.894   +09 46 04.72  1.2761 2.2231 153.0 21.7  928  91
2026 05 09 07  15 05 19.398   +09 46 41.59  1.2766 2.2235 152.9 21.7  956  91
2026 05 09 08  15 05 16.904   +09 47 18.39  1.2771 2.2239 152.9 21.7  985  91
2026 05 09 09  15 05 14.411   +09 47 55.14  1.2776 2.2243 152.9 21.7 1014  91
2026 05 09 10  15 05 11.921   +09 48 31.82  1.2781 2.2247 152.9 21.7 1043  91
2026 05 09 11  15 05 09.432   +09 49 08.43  1.2786 2.2251 152.9 21.7 1073  91
2026 05 09 12  15 05 06.944   +09 49 44.99  1.2791 2.2255 152.8 21.7 1104  91
2026 05 09 13  15 05 04.459   +09 50 21.48  1.2796 2.2258 152.8 21.7 1135  91
2026 05 09 14  15 05 01.975   +09 50 57.91  1.2800 2.2262 152.8 21.7 1167  91
2026 05 09 15  15 04 59.492   +09 51 34.28  1.2805 2.2266 152.8 21.7 1200  92
2026 05 09 16  15 04 57.012   +09 52 10.58  1.2810 2.2270 152.8 21.7 1233  92
2026 05 09 17  15 04 54.533   +09 52 46.82  1.2815 2.2274 152.7 21.7 1266  92
2026 05 09 18  15 04 52.056   +09 53 23.00  1.2820 2.2278 152.7 21.7 1301  92
2026 05 09 19  15 04 49.581   +09 53 59.12  1.2825 2.2282 152.7 21.7 1336  92
2026 05 09 20  15 04 47.107   +09 54 35.17  1.2830 2.2286 152.7 21.7 1372  92
2026 05 09 21  15 04 44.635   +09 55 11.16  1.2835 2.2290 152.6 21.7 1409  92
2026 05 09 22  15 04 42.165   +09 55 47.09  1.2840 2.2294 152.6 21.7 1446  92
2026 05 09 23  15 04 39.697   +09 56 22.96  1.2845 2.2298 152.6 21.7 1485  93
2026 05 10 00  15 04 37.230   +09 56 58.76  1.2850 2.2302 152.6 21.7 1524  93
2026 05 10 01  15 04 34.765   +09 57 34.50  1.2855 2.2306 152.6 21.7 1564  93